When you browse on this site, cookies collect data to enhance your experience and personalize the content and advertising you see.
Visit our Privacy Policy to learn more. By continuing to use the site, you agree to this use of cookies and data.
  • In Lithuania
  • List of Countries
  • For 7 days
  • Water Temperature
  • Satellite Maps
  • Weather Map
  • Weather Widgets
  • user-avatar
    Login

    Hourly Weather San Luis

    Today, 14 December, Friday

    Time Temperature Precipitation Wind Pressure Humidity
    00:00 +23°C° 0.4 mm 8 mps 693 mmHg 67%
    01:00 +23°C° 0.4 mm 9 mps 693 mmHg 68%
    02:00 +22°C° 0.4 mm 9 mps 694 mmHg 69%
    03:00 +21°C° 0 mm 9 mps 694 mmHg 67%
    04:00 +20°C° 0 mm 8 mps 695 mmHg 65%
    05:00 +20°C° 0 mm 8 mps 695 mmHg 63%
    06:00 +20°C° 0 mm 8 mps 697 mmHg 52%
    07:00 +21°C° 0 mm 9 mps 698 mmHg 42%
    08:00 +21°C° 0 mm 10 mps 699 mmHg 32%
    09:00 +23°C° 0 mm 9 mps 699 mmHg 28%
    10:00 +24°C° 0 mm 9 mps 699 mmHg 25%
    11:00 +26°C° 0 mm 8 mps 700 mmHg 22%
    12:00 +27°C° 0 mm 7 mps 700 mmHg 21%
    13:00 +28°C° 0 mm 6 mps 699 mmHg 21%
    14:00 +28°C° 0 mm 6 mps 699 mmHg 20%
    15:00 +29°C° 0 mm 6 mps 699 mmHg 20%
    16:00 +29°C° 0 mm 6 mps 699 mmHg 20%
    17:00 +29°C° 0 mm 6 mps 699 mmHg 20%
    18:00 +27°C° 0 mm 6 mps 699 mmHg 23%
    19:00 +25°C° 0 mm 5 mps 699 mmHg 27%
    20:00 +23°C° 0 mm 5 mps 699 mmHg 30%
    21:00 +22°C° 0 mm 5 mps 700 mmHg 33%
    22:00 +21°C° 0 mm 5 mps 700 mmHg 36%
    23:00 +20°C° 0 mm 5 mps 701 mmHg 39%

    Tomorrow, 15 December, Saturday

    Time Temperature Precipitation Wind Pressure Humidity
    00:00 +20°C° 0 mm 5 mps 700 mmHg 39%
    01:00 +19°C° 0 mm 5 mps 700 mmHg 40%
    02:00 +19°C° 0 mm 5 mps 700 mmHg 40%
    03:00 +19°C° 0 mm 5 mps 700 mmHg 39%
    04:00 +19°C° 0 mm 4 mps 700 mmHg 38%
    05:00 +18°C° 0 mm 4 mps 700 mmHg 37%
    06:00 +21°C° 0 mm 4 mps 700 mmHg 32%
    07:00 +23°C° 0 mm 5 mps 701 mmHg 27%
    08:00 +27°C° 0 mm 5 mps 702 mmHg 22%
    09:00 +28°C° 0 mm 5 mps 702 mmHg 19%
    10:00 +30°C° 0 mm 5 mps 702 mmHg 17%
    11:00 +33°C° 0 mm 5 mps 701 mmHg 15%
    12:00 +33°C° 0 mm 6 mps 701 mmHg 16%
    13:00 +34°C° 0 mm 6 mps 700 mmHg 17%
    14:00 +35°C° 0 mm 7 mps 699 mmHg 18%
    15:00 +35°C° 0 mm 7 mps 698 mmHg 18%
    16:00 +35°C° 0 mm 6 mps 698 mmHg 18%
    17:00 +34°C° 0 mm 6 mps 697 mmHg 18%
    18:00 +32°C° 0 mm 6 mps 697 mmHg 19%
    19:00 +30°C° 0 mm 5 mps 697 mmHg 21%
    20:00 +28°C° 0 mm 5 mps 697 mmHg 23%
    21:00 +27°C° 0 mm 6 mps 697 mmHg 24%
    22:00 +26°C° 0 mm 6 mps 697 mmHg 24%
    23:00 +24°C° 0 mm 7 mps 697 mmHg 25%

    Day after tomorrow, 16 December, Sunday

    Time Temperature Precipitation Wind Pressure Humidity
    00:00 +24°C° 0 mm 8 mps 697 mmHg 26%
    01:00 +24°C° 0 mm 8 mps 696 mmHg 28%
    02:00 +23°C° 0 mm 8 mps 696 mmHg 29%
    03:00 +23°C° 0 mm 8 mps 696 mmHg 33%
    04:00 +22°C° 0 mm 8 mps 696 mmHg 37%
    05:00 +22°C° 0 mm 7 mps 696 mmHg 41%
    06:00 +23°C° 0 mm 7 mps 696 mmHg 41%
    07:00 +26°C° 0 mm 7 mps 697 mmHg 41%
    08:00 +28°C° 0 mm 7 mps 698 mmHg 40%
    09:00 +30°C° 0 mm 6 mps 698 mmHg 36%
    10:00 +32°C° 0 mm 4 mps 698 mmHg 32%
    11:00 +34°C° 0 mm 3 mps 698 mmHg 28%
    12:00 +35°C° 0 mm 3 mps 697 mmHg 26%
    13:00 +36°C° 0 mm 2 mps 696 mmHg 24%
    14:00 +36°C° 0 mm 2 mps 696 mmHg 22%
    15:00 +37°C° 0 mm 2 mps 695 mmHg 22%
    16:00 +37°C° 0 mm 2 mps 695 mmHg 21%
    17:00 +37°C° 0 mm 2 mps 695 mmHg 20%
    18:00 +35°C° 0 mm 2 mps 695 mmHg 22%
    19:00 +33°C° 0 mm 3 mps 695 mmHg 25%
    20:00 +31°C° 0 mm 3 mps 695 mmHg 28%
    21:00 +30°C° 0 mm 3 mps 695 mmHg 33%
    22:00 +29°C° 0 mm 4 mps 695 mmHg 38%
    23:00 +28°C° 0 mm 4 mps 696 mmHg 43%

    17 December, Monday

    Time Temperature Precipitation Wind Pressure Humidity
    00:00 +27°C° 0 mm 4 mps 696 mmHg 45%
    01:00 +27°C° 0 mm 4 mps 696 mmHg 48%
    02:00 +27°C° 0 mm 4 mps 696 mmHg 50%
    03:00 +25°C° 0.6 mm 5 mps 696 mmHg 56%
    04:00 +23°C° 0.6 mm 5 mps 697 mmHg 61%
    05:00 +21°C° 0.6 mm 6 mps 697 mmHg 66%
    06:00 +22°C° 1 mm 6 mps 698 mmHg 65%
    07:00 +22°C° 1 mm 7 mps 699 mmHg 65%
    08:00 +23°C° 1 mm 7 mps 700 mmHg 64%
    09:00 +23°C° 1.2 mm 7 mps 700 mmHg 62%
    10:00 +24°C° 1.2 mm 7 mps 700 mmHg 59%
    11:00 +26°C° 1.2 mm 7 mps 700 mmHg 56%
    12:00 +27°C° 1.4 mm 8 mps 700 mmHg 54%
    13:00 +28°C° 1.4 mm 8 mps 699 mmHg 52%
    14:00 +29°C° 1.4 mm 9 mps 699 mmHg 50%
    15:00 +28°C° 0.9 mm 10 mps 699 mmHg 52%
    16:00 +27°C° 0.9 mm 11 mps 699 mmHg 54%
    17:00 +27°C° 0.9 mm 12 mps 698 mmHg 55%
    18:00 +24°C° 0.1 mm 11 mps 699 mmHg 59%
    19:00 +23°C° 0.1 mm 11 mps 699 mmHg 62%
    20:00 +22°C° 0.1 mm 10 mps 699 mmHg 66%
    21:00 +21°C° 0 mm 9 mps 700 mmHg 68%
    22:00 +21°C° 0 mm 8 mps 700 mmHg 69%
    23:00 +20°C° 0 mm 7 mps 700 mmHg 71%

    18 December, Tuesday

    Time Temperature Precipitation Wind Pressure Humidity
    00:00 +19°C° 0.1 mm 6 mps 700 mmHg 73%
    01:00 +19°C° 0.1 mm 5 mps 700 mmHg 76%
    02:00 +17°C° 0.1 mm 5 mps 699 mmHg 78%
    03:00 +17°C° 0 mm 5 mps 700 mmHg 80%
    04:00 +17°C° 0 mm 4 mps 700 mmHg 81%
    05:00 +17°C° 0 mm 4 mps 700 mmHg 83%
    06:00 +19°C° 0 mm 4 mps 700 mmHg 76%
    07:00 +20°C° 0 mm 4 mps 700 mmHg 69%
    08:00 +22°C° 0 mm 3 mps 701 mmHg 63%
    09:00 +25°C° 0 mm 3 mps 701 mmHg 57%
    10:00 +27°C° 0 mm 3 mps 700 mmHg 51%
    11:00 +29°C° 0 mm 2 mps 700 mmHg 45%
    12:00 +30°C° 0.1 mm 2 mps 699 mmHg 41%
    13:00 +31°C° 0.1 mm 3 mps 699 mmHg 37%
    14:00 +33°C° 0.1 mm 3 mps 698 mmHg 34%
    15:00 +34°C° 0.1 mm 3 mps 697 mmHg 33%
    16:00 +34°C° 0.1 mm 4 mps 697 mmHg 33%
    17:00 +34°C° 0.1 mm 4 mps 696 mmHg 33%
    18:00 +32°C° 0 mm 4 mps 696 mmHg 37%
    19:00 +30°C° 0 mm 5 mps 695 mmHg 41%
    20:00 +29°C° 0 mm 5 mps 695 mmHg 45%
    21:00 +28°C° 0 mm 6 mps 695 mmHg 47%
    22:00 +27°C° 0 mm 7 mps 695 mmHg 49%
    23:00 +27°C° 0 mm 8 mps 695 mmHg 51%

    19 December, Wednesday

    Time Temperature Precipitation Wind Pressure Humidity
    00:00 +26°C° 0 mm 8 mps 694 mmHg 54%
    01:00 +26°C° 0 mm 8 mps 694 mmHg 56%
    02:00 +24°C° 0 mm 8 mps 693 mmHg 59%
    03:00 +23°C° 0 mm 8 mps 693 mmHg 62%
    04:00 +23°C° 0 mm 7 mps 693 mmHg 66%
    05:00 +22°C° 0 mm 7 mps 693 mmHg 69%
    06:00 +23°C° 0 mm 7 mps 693 mmHg 64%
    07:00 +26°C° 0 mm 7 mps 694 mmHg 58%
    08:00 +27°C° 0 mm 7 mps 694 mmHg 53%
    09:00 +29°C° 0 mm 6 mps 694 mmHg 48%
    10:00 +32°C° 0 mm 5 mps 695 mmHg 43%
    11:00 +33°C° 0 mm 4 mps 695 mmHg 37%
    12:00 +32°C° 0.6 mm 4 mps 694 mmHg 39%
    13:00 +32°C° 0.6 mm 5 mps 694 mmHg 42%
    14:00 +30°C° 0.6 mm 5 mps 693 mmHg 44%
    15:00 +29°C° 2.3 mm 6 mps 693 mmHg 44%
    16:00 +28°C° 2.3 mm 6 mps 693 mmHg 44%
    17:00 +27°C° 2.3 mm 7 mps 692 mmHg 43%
    18:00 +27°C° 0 mm 6 mps 693 mmHg 41%
    19:00 +27°C° 0 mm 5 mps 694 mmHg 38%
    20:00 +26°C° 0 mm 5 mps 695 mmHg 36%
    21:00 +26°C° 0 mm 6 mps 696 mmHg 38%
    22:00 +24°C° 0 mm 6 mps 697 mmHg 41%
    23:00 +24°C° 0 mm 7 mps 698 mmHg 43%
    Show more